Location: Kouchibouguac National Park
(46.7962°N, 64.9642°W)
Time: 12:58:57
(UTC-03:00)

ISS - Visible Passes

Search period start: 26 April 2019 00:00
Search period end: 06 May 2019 00:00
Orbit: 408 x 410 km, 51.6° (Epoch: 27 April)

Date Brightness Start Highest point End Pass type
(mag) Time Alt. Az. Time Alt. Az. Time Alt. Az.
30 Apr -1.6 04:58:03 10° S 05:00:25 18° SE 05:02:48 10° E visible
01 May -1.2 04:08:55 10° SSE 04:09:48 11° SE 04:10:44 10° ESE visible
02 May -2.9 04:52:45 16° SSW 04:55:00 39° SE 04:58:07 10° ENE visible
03 May -2.2 04:03:46 23° SSE 04:04:15 24° SE 04:06:59 10° E visible
04 May -1.1 03:14:44 12° ESE 03:14:44 12° ESE 03:15:27 10° E visible
04 May -3.8 04:47:27 19° WSW 04:49:40 82° SSE 04:53:00 10° ENE visible
05 May -3.5 03:58:21 46° S 03:58:48 50° SSE 04:02:02 10° ENE visible
